BAW1346 EGLL-EGJJ

Flight info

Callsign BAW1346
Flight time 0h 31m
Altitude 24000
Route GASGU N866 SAM N63 LELNA
Aircraft A319/M-SDE3FGHIRWY/LB1

Departure

Time 2026-05-05 10:12
Airport London Heathrow Airport (EGLL)

Arrival

Time 2026-05-05 10:43
Airport Jersey Airport (EGJJ)
Time Latitude Longitude Altitude Speed Heading
2026-05-05 09:36 51.46926 -0.48789 85 ft 0 kts 359°
2026-05-05 10:03 51.46925 -0.48789 85 ft 2 kts 359°
2026-05-05 10:03 51.46900 -0.48793 85 ft 4 kts 22°
2026-05-05 10:03 51.46880 -0.48817 89 ft 4 kts 70°
2026-05-05 10:03 51.46877 -0.48827 88 ft 4 kts 90°
2026-05-05 10:04 51.46874 -0.48784 88 ft 4 kts 102°
2026-05-05 10:04 51.46859 -0.48754 88 ft 4 kts 150°
2026-05-05 10:04 51.46840 -0.48751 86 ft 0 kts 180°
2026-05-05 10:08 51.46831 -0.48751 88 ft 3 kts 180°
2026-05-05 10:08 51.46801 -0.48751 86 ft 6 kts 180°
2026-05-05 10:08 51.46752 -0.48751 85 ft 8 kts 180°
2026-05-05 10:08 51.46687 -0.48750 85 ft 10 kts 181°
2026-05-05 10:09 51.46612 -0.48760 85 ft 12 kts 198°
2026-05-05 10:09 51.46593 -0.48771 87 ft 0 kts 200°
2026-05-05 10:09 51.46580 -0.48779 85 ft 5 kts 199°
2026-05-05 10:10 51.46533 -0.48788 85 ft 9 kts 175°
2026-05-05 10:10 51.46484 -0.48726 86 ft 10 kts 118°
2026-05-05 10:10 51.46477 -0.48652 86 ft 0 kts 87°
2026-05-05 10:10 51.46477 -0.48638 86 ft 3 kts 88°
2026-05-05 10:11 51.46478 -0.48571 86 ft 14 kts 90°
2026-05-05 10:11 51.46479 -0.48089 84 ft 74 kts 89°
2026-05-05 10:11 51.46483 -0.46951 86 ft 128 kts 90°
2026-05-05 10:11 51.46486 -0.45302 189 ft 164 kts 86°
2026-05-05 10:12 51.46504 -0.43490 910 ft 162 kts 85°
2026-05-05 10:12 51.46446 -0.41656 1570 ft 176 kts 102°
2026-05-05 10:12 51.45781 -0.39820 1969 ft 204 kts 122°
2026-05-05 10:12 51.44918 -0.37864 2365 ft 227 kts 122°
2026-05-05 10:13 51.43953 -0.35689 2904 ft 251 kts 123°
2026-05-05 10:13 51.42632 -0.33757 3843 ft 265 kts 147°
2026-05-05 10:13 51.40870 -0.32825 4931 ft 272 kts 173°
2026-05-05 10:13 51.38979 -0.33163 5966 ft 279 kts 199°
2026-05-05 10:14 51.37354 -0.34760 6977 ft 281 kts 222°
2026-05-05 10:14 51.35902 -0.36872 7957 ft 284 kts 223°
2026-05-05 10:14 51.34437 -0.39013 8909 ft 287 kts 223°
2026-05-05 10:14 51.32949 -0.41182 9832 ft 292 kts 223°
2026-05-05 10:15 51.31557 -0.43416 10362 ft 307 kts 235°
2026-05-05 10:15 51.30774 -0.46674 10636 ft 328 kts 265°
2026-05-05 10:15 51.31088 -0.50363 10854 ft 348 kts 293°
2026-05-05 10:15 51.32463 -0.53642 11114 ft 364 kts 310°
2026-05-05 10:16 51.33748 -0.57154 11633 ft 377 kts 292°
2026-05-05 10:16 51.34260 -0.61349 11926 ft 393 kts 272°
2026-05-05 10:16 51.33901 -0.65706 12512 ft 401 kts 253°
2026-05-05 10:16 51.32683 -0.69727 13149 ft 406 kts 236°
2026-05-05 10:17 51.31046 -0.73353 13803 ft 410 kts 232°
2026-05-05 10:17 51.28999 -0.76522 14391 ft 413 kts 216°
2026-05-05 10:17 51.26738 -0.78976 15008 ft 415 kts 213°
2026-05-05 10:17 51.24470 -0.81387 15592 ft 416 kts 213°
2026-05-05 10:18 51.21966 -0.84026 16219 ft 419 kts 213°
2026-05-05 10:18 51.19527 -0.86589 16811 ft 421 kts 213°
2026-05-05 10:18 51.17075 -0.89163 17386 ft 423 kts 213°
2026-05-05 10:18 51.14611 -0.91752 17949 ft 426 kts 213°
2026-05-05 10:19 51.12133 -0.94359 18470 ft 428 kts 213°
2026-05-05 10:19 51.09660 -0.96960 18934 ft 431 kts 212°
2026-05-05 10:19 51.07154 -0.99593 19401 ft 433 kts 213°
2026-05-05 10:19 51.04631 -1.02241 19868 ft 435 kts 212°
2026-05-05 10:20 51.02098 -1.04896 20326 ft 437 kts 212°
2026-05-05 10:20 50.99588 -1.07522 20773 ft 439 kts 212°
2026-05-05 10:20 50.97033 -1.10189 21193 ft 441 kts 212°
2026-05-05 10:20 50.94462 -1.12867 21599 ft 443 kts 212°
2026-05-05 10:21 50.91878 -1.15557 21999 ft 445 kts 212°
2026-05-05 10:21 50.89288 -1.18250 22383 ft 446 kts 212°
2026-05-05 10:21 50.86686 -1.20954 22761 ft 448 kts 212°
2026-05-05 10:21 50.84073 -1.23667 23125 ft 450 kts 212°
2026-05-05 10:22 50.81450 -1.26385 23479 ft 452 kts 212°
2026-05-05 10:22 50.78812 -1.29110 23788 ft 453 kts 212°
2026-05-05 10:22 50.76166 -1.31835 23951 ft 454 kts 212°
2026-05-05 10:22 50.73536 -1.34544 23989 ft 461 kts 212°
2026-05-05 10:23 50.70834 -1.37324 23988 ft 464 kts 212°
2026-05-05 10:23 50.68113 -1.40119 23984 ft 465 kts 212°
2026-05-05 10:23 50.65408 -1.42902 23980 ft 465 kts 212°
2026-05-05 10:23 50.62739 -1.45638 23982 ft 460 kts 212°
2026-05-05 10:24 50.60136 -1.48296 23990 ft 463 kts 212°
2026-05-05 10:24 50.57524 -1.50968 23985 ft 465 kts 212°
2026-05-05 10:24 50.54812 -1.53747 23978 ft 466 kts 212°
2026-05-05 10:24 50.52093 -1.56528 23979 ft 466 kts 212°
2026-05-05 10:25 50.49374 -1.59303 23979 ft 466 kts 212°
2026-05-05 10:25 50.46653 -1.62069 23978 ft 466 kts 212°
2026-05-05 10:25 50.43926 -1.64831 23983 ft 466 kts 212°
2026-05-05 10:25 50.41198 -1.67592 23983 ft 466 kts 212°
2026-05-05 10:26 50.38474 -1.70351 23973 ft 466 kts 212°
2026-05-05 10:26 50.35748 -1.73109 23978 ft 466 kts 211°
2026-05-05 10:26 50.33022 -1.75858 23972 ft 466 kts 211°
2026-05-05 10:26 50.30331 -1.78569 23969 ft 466 kts 211°
2026-05-05 10:27 50.27605 -1.81308 23977 ft 466 kts 211°
2026-05-05 10:27 50.24874 -1.84050 23952 ft 464 kts 211°
2026-05-05 10:27 50.22213 -1.86725 23716 ft 447 kts 211°
2026-05-05 10:27 50.19650 -1.89308 23352 ft 433 kts 211°
2026-05-05 10:28 50.17123 -1.91850 22679 ft 426 kts 211°
2026-05-05 10:28 50.14652 -1.94329 22084 ft 419 kts 211°
2026-05-05 10:28 50.12250 -1.96727 21504 ft 412 kts 211°
2026-05-05 10:28 50.09853 -1.99111 20945 ft 406 kts 211°
2026-05-05 10:29 50.07484 -2.01462 20405 ft 401 kts 211°
2026-05-05 10:29 50.05139 -2.03790 19888 ft 399 kts 211°
2026-05-05 10:29 50.02810 -2.06105 19357 ft 395 kts 211°
2026-05-05 10:29 50.00507 -2.08394 18850 ft 391 kts 211°
2026-05-05 10:30 49.98115 -2.10338 18322 ft 386 kts 201°
2026-05-05 10:30 49.95574 -2.11583 17747 ft 380 kts 191°
2026-05-05 10:30 49.93035 -2.12440 17215 ft 375 kts 191°
2026-05-05 10:30 49.90483 -2.13302 16685 ft 370 kts 191°
2026-05-05 10:31 49.87980 -2.14151 16135 ft 366 kts 191°
2026-05-05 10:31 49.85501 -2.14997 15595 ft 363 kts 191°
2026-05-05 10:31 49.83073 -2.15826 15051 ft 361 kts 192°
2026-05-05 10:31 49.80626 -2.16659 14501 ft 359 kts 192°
2026-05-05 10:32 49.78190 -2.17485 13948 ft 358 kts 192°
2026-05-05 10:32 49.75761 -2.18314 13346 ft 357 kts 192°
2026-05-05 10:32 49.73347 -2.19138 12793 ft 354 kts 192°
2026-05-05 10:32 49.70951 -2.19957 12234 ft 352 kts 192°
2026-05-05 10:33 49.68582 -2.20868 11661 ft 350 kts 194°
2026-05-05 10:33 49.66242 -2.21888 11092 ft 349 kts 195°
2026-05-05 10:33 49.63925 -2.22958 10646 ft 344 kts 196°
2026-05-05 10:33 49.61684 -2.24006 10507 ft 329 kts 196°
2026-05-05 10:34 49.59533 -2.25005 10392 ft 316 kts 196°
2026-05-05 10:34 49.57487 -2.25944 10224 ft 307 kts 195°
2026-05-05 10:34 49.55455 -2.26860 10095 ft 303 kts 195°
2026-05-05 10:34 49.53434 -2.27757 10028 ft 302 kts 195°
2026-05-05 10:35 49.51417 -2.28646 9811 ft 303 kts 195°
2026-05-05 10:35 49.49361 -2.29552 9263 ft 307 kts 195°
2026-05-05 10:35 49.47330 -2.30451 8990 ft 302 kts 195°
2026-05-05 10:35 49.45305 -2.31350 8837 ft 304 kts 195°
2026-05-05 10:36 49.43256 -2.32254 8704 ft 309 kts 195°
2026-05-05 10:36 49.41183 -2.33168 8558 ft 310 kts 195°
2026-05-05 10:36 49.39143 -2.34071 8275 ft 301 kts 195°
2026-05-05 10:36 49.37144 -2.34955 7824 ft 298 kts 195°
2026-05-05 10:37 49.35193 -2.35814 7277 ft 294 kts 195°
2026-05-05 10:37 49.33231 -2.36676 6695 ft 292 kts 194°
2026-05-05 10:37 49.31284 -2.37529 6068 ft 291 kts 194°
2026-05-05 10:37 49.29324 -2.38389 5264 ft 295 kts 194°
2026-05-05 10:38 49.27365 -2.39250 4837 ft 286 kts 194°
2026-05-05 10:38 49.25528 -2.40282 4354 ft 280 kts 211°
2026-05-05 10:38 49.24098 -2.42249 3803 ft 276 kts 229°
2026-05-05 10:38 49.22623 -2.44073 3297 ft 270 kts 203°
2026-05-05 10:39 49.20899 -2.44589 3061 ft 252 kts 172°
2026-05-05 10:39 49.19306 -2.43749 2827 ft 240 kts 141°
2026-05-05 10:39 49.18290 -2.41892 2570 ft 229 kts 105°
2026-05-05 10:39 49.18309 -2.39605 2413 ft 212 kts 63°
2026-05-05 10:40 49.19133 -2.37817 2278 ft 201 kts 51°
2026-05-05 10:40 49.19576 -2.35837 2138 ft 199 kts 86°
2026-05-05 10:40 49.19590 -2.33802 2035 ft 184 kts 81°
2026-05-05 10:40 49.19745 -2.31942 1814 ft 168 kts 78°
2026-05-05 10:41 49.19886 -2.30301 1599 ft 142 kts 78°
2026-05-05 10:41 49.20007 -2.28882 1418 ft 128 kts 78°
2026-05-05 10:41 49.20119 -2.27564 1245 ft 124 kts 77°
2026-05-05 10:41 49.20233 -2.26266 1070 ft 123 kts 77°
2026-05-05 10:42 49.20445 -2.23704 712 ft 123 kts 77°
2026-05-05 10:42 49.20551 -2.22404 567 ft 124 kts 76°
2026-05-05 10:42 49.20665 -2.21112 359 ft 121 kts 78°
2026-05-05 10:43 49.20777 -2.19880 285 ft 104 kts 83°
2026-05-05 10:43 49.20841 -2.19044 285 ft 54 kts 83°
2026-05-05 10:43 49.20873 -2.18661 283 ft 32 kts 82°
2026-05-05 10:43 49.20870 -2.18400 284 ft 19 kts 129°
2026-05-05 10:44 49.20784 -2.18400 286 ft 14 kts 219°
2026-05-05 10:44 49.20732 -2.18524 288 ft 16 kts 265°
2026-05-05 10:44 49.20718 -2.18702 287 ft 18 kts 262°
2026-05-05 10:44 49.20701 -2.18906 284 ft 21 kts 263°
2026-05-05 10:45 49.20681 -2.19136 284 ft 23 kts 263°
2026-05-05 10:45 49.20710 -2.19387 284 ft 25 kts 278°
2026-05-05 10:45 49.20686 -2.19609 286 ft 16 kts 245°
2026-05-05 10:45 49.20624 -2.19691 284 ft 10 kts 227°
2026-05-05 10:46 49.20593 -2.19763 287 ft 8 kts 168°
2026-05-05 10:46 49.20573 -2.19756 284 ft 2 kts 169°
2026-05-05 10:46 49.20556 -2.19753 284 ft 2 kts 173°
2026-05-05 10:46 49.20553 -2.19753 284 ft 0 kts 173°